Change the Weather History Date:

Monday, January 5, 2015

  Actual Average Record
Temperature  
Mean Temperature 6 °F -  
Max Temperature 10 °F 46 °F 33 °F (2013)
Min Temperature 1 °F 28 °F 1 °F (2015)
Degree Days  
Heating Degree Days 60    
Moisture  
Dew Point 3 °F    
Average Humidity 91    
Maximum Humidity 92    
Minimum Humidity 85    
Precipitation  
Precipitation 0.00 in - - ()
Sea Level Pressure  
Sea Level Pressure 30.56 in    
Wind  
Wind Speed 12 mph (West)    
Max Wind Speed 15 mph    
Max Gust Speed 22 mph    
Visibility 10 miles    
Events Snow    
Averages and records for this station are not official NWS values.
T = Trace of Precipitation, MM = Missing Value Source: NWS Daily Summary

Daily Weather History Graph

Daily Weather History Graph

Search for Another Location

Airport or City:

Trip Planner

Search our weather history database for the weather conditions in past years. The results will help you decide how hot, cold, wet, or windy it might be!

Date:

Astronomy

Jan. 05, 2015 Rise Set
Actual Time 8:09 AM EST 5:32 PM EST
Civil Twilight 7:39 AM EST 6:02 PM EST
Nautical Twilight 7:04 AM EST 6:37 PM EST
Astronomical Twilight 6:31 AM EST 7:10 PM EST
Moon 6:26 PM EST (1/5) 8:05 AM EST (1/5)
Length of Visible Light 10h 23m
Length of Day
9h 22m
Full, 100% of the Moon is Illuminated
Jan 5
Full
Jan 13
Last Quarter
Jan 20
New
Jan 26
First Quarter
Feb 3
Full

Hourly Weather History & Observations

Time (EST) Temp. Windchill Dew Point Humidity Pressure Visibility Wind Dir Wind Speed Gust Speed Precip Events Conditions
12:15 AM 10.4 °F -3.3 °F 8.6 °F 92% 30.45 in 10.0 mi WNW 10.4 mph 18.4 mph N/A   Clear
12:35 AM 10.4 °F -5.4 °F 8.6 °F 92% 30.46 in 10.0 mi West 13.8 mph 18.4 mph N/A   Clear
12:55 AM 10.4 °F -5.4 °F 8.6 °F 92% 30.47 in 10.0 mi West 13.8 mph - N/A   Clear
1:15 AM 10.4 °F -6.0 °F 8.6 °F 92% 30.48 in 10.0 mi West 15.0 mph 20.7 mph N/A   Clear
1:35 AM 10.4 °F -6.0 °F 8.6 °F 92% 30.49 in 10.0 mi West 15.0 mph 19.6 mph N/A   Clear
1:55 AM 10.4 °F -6.0 °F 8.6 °F 92% 30.50 in 10.0 mi WNW 15.0 mph 18.4 mph N/A   Clear
2:15 AM 10.4 °F -3.3 °F 8.6 °F 92% 30.52 in 10.0 mi West 10.4 mph 19.6 mph N/A   Scattered Clouds
2:35 AM 8.6 °F -7.7 °F 6.8 °F 92% 30.53 in 10.0 mi WNW 13.8 mph 19.6 mph N/A   Scattered Clouds
2:55 AM 8.6 °F -7.7 °F 5.0 °F 85% 30.53 in 10.0 mi West 13.8 mph - N/A   Scattered Clouds
3:15 AM 6.8 °F -7.8 °F 5.0 °F 92% 30.54 in 10.0 mi WNW 10.4 mph 19.6 mph N/A   Clear
3:35 AM 6.8 °F -9.3 °F 5.0 °F 92% 30.55 in 10.0 mi WNW 12.7 mph 16.1 mph N/A   Mostly Cloudy
3:55 AM 5.0 °F -10.8 °F 3.2 °F 92% 30.55 in 10.0 mi WNW 11.5 mph - N/A   Scattered Clouds
4:15 AM 5.0 °F -12.3 °F 3.2 °F 92% 30.56 in 10.0 mi WNW 13.8 mph 21.9 mph N/A   Clear
4:35 AM 5.0 °F -10.0 °F 3.2 °F 92% 30.56 in 10.0 mi WNW 10.4 mph 17.3 mph N/A   Clear
4:55 AM 3.2 °F -13.9 °F 1.4 °F 92% 30.57 in 10.0 mi West 12.7 mph 16.1 mph N/A   Scattered Clouds
5:15 AM 3.2 °F -12.2 °F 1.4 °F 92% 30.58 in 10.0 mi West 10.4 mph 18.4 mph N/A   Scattered Clouds
5:35 AM 3.2 °F -11.3 °F -0.4 °F 85% 30.58 in 10.0 mi WNW 9.2 mph - N/A   Clear
5:55 AM 3.2 °F -13.1 °F -0.4 °F 85% 30.59 in 10.0 mi West 11.5 mph 16.1 mph N/A   Clear
6:15 AM 1.4 °F -16.9 °F -0.4 °F 92% 30.59 in 10.0 mi WNW 13.8 mph 20.7 mph N/A   Clear
6:35 AM 1.4 °F -13.5 °F -0.4 °F 92% 30.60 in 10.0 mi WNW 9.2 mph - N/A   Clear
6:55 AM 1.4 °F -12.5 °F -0.4 °F 92% 30.61 in 10.0 mi WNW 8.1 mph - N/A   Clear
7:15 AM 1.4 °F -14.5 °F -0.4 °F 92% 30.61 in 10.0 mi West 10.4 mph - N/A   Clear
7:35 AM 1.4 °F -12.5 °F -0.4 °F 92% 30.62 in 10.0 mi West 8.1 mph - N/A   Scattered Clouds
7:55 AM 1.4 °F -16.9 °F -0.4 °F 92% 30.64 in 5.0 mi West 13.8 mph 19.6 mph N/A   Overcast
8:10 AM 1.4 °F -15.3 °F -0.4 °F 92% 30.64 in 10.0 mi West 11.5 mph 19.6 mph N/A   Overcast
8:40 AM 1.4 °F -17.6 °F -0.4 °F 92% 30.64 in 10.0 mi West 15.0 mph 18.4 mph N/A   Scattered Clouds
8:50 AM 1.4 °F -16.1 °F -0.4 °F 92% 30.66 in 10.0 mi West 12.7 mph 17.3 mph N/A   Clear
9:15 AM 1.4 °F -16.9 °F -0.4 °F 92% 30.66 in 10.0 mi West 13.8 mph 19.6 mph N/A   Clear
9:55 AM 1.4 °F -16.1 °F -0.4 °F 92% 30.66 in 10.0 mi West 12.7 mph - N/A   Clear
10:55 AM 5.0 °F -9.1 °F 1.4 °F 85% 30.66 in 10.0 mi West 9.2 mph - N/A   Clear
2:10 PM 8.6 °F -6.3 °F 5.0 °F 85% 30.57 in 10.0 mi West 11.5 mph 21.9 mph N/A   Mostly Cloudy
5:55 PM 8.6 °F -3.7 °F 6.8 °F 92% 30.52 in 10.0 mi WSW 8.1 mph - N/A   Clear
10:00 PM 10.4 °F -3.3 °F 8.6 °F 92% 30.41 in 1.5 mi South 10.4 mph - N/A Snow Light Snow